User: anonymous   Login
Location: Unspecified
(0.0000°N, 0.0000°E)
Time: 02:18:16
(UTC+00:00)
Language:

OPTUS D1 - Orbit

View from above orbital plane
View from above orbital plane
View from above satellite
View from above satellite

Ground track
Ground track

The orbit data is extracted from the following two-line orbital elements,

1 29495U 06043B   16242.76857560 -.00000144  00000-0  00000+0 0  9990
2 29495   0.0418 318.9259 0003269 205.9557 250.1805  1.00271915 36268
Epoch (UTC): 29 August 2016 18:26:44
Eccentricity: 0.0003269
inclination: 0.0418°
perigee height: 35772 km
apogee height: 35800 km
right ascension of ascending node: 318.9259°
argument of perigee: 205.9557°
revolutions per day: 1.00271915
mean anomaly at epoch: 250.1805°
orbit number at epoch: 3626

The dashed part of the orbit path shows where the satellite is in the earth's shadow,  

DLR